Temp
17 18 18 19 18 19 19 18 18 19 18 19 19 20 19 20 20 21 21 20 20 20 19 19 18 18 18 18 18 18 18 16 16 16 16 16 16 16 16 17 17 17 17
17 18 18 19 19 19 19 19 19 19 19 19 19 19 20 20 21 20 20 21 20 20 20 19 19 18 18 18 18 18 18 17 16 16 16 16 16 16 16 16 16 16 17
18 18 18 18 19 18 19 18 19 19 19 19 19 19 20 20 20 20 20 21 20 20 19 19 18 19 18 18 17 17 17 18 17 17 17 16 16 16 16 16 16 16 16
18 18 18 19 19 18 19 19 19 18 19 19 20 20 20 20 20 20 20 20 20 20 20 20 19 19 18 18 18 17 17 18 17 17 16 16 16 16 16 16 16 16 16
17 18 18 19 18 18 19 18 18 18 19 20 20 20 20 21 20 21 20 19 19 19 20 20 19 19 19 19 18 18 18 17 17 17 17 17 16 16 16 16 16 16 16
17 18 18 18 18 19 18 18 18 18 18 18 19 20 20 21 21 21 21 20 20 20 20 19 19 19 19 19 19 18 17 17 17 17 18 17 17 16 16 16 16 16 16
18 19 18 18 18 18 19 18 18 19 19 19 18 19 21 21 21 20 20 20 20 20 19 19 18 19 19 19 19 18 18 17 17 17 16 17 17 17 16 16 16 16 15
19 18 19 18 18 18 19 19 19 18 18 18 18 17 19 22 21 21 21 19 19 19 19 19 18 18 18 18 19 18 18 18 17 17 18 17 18 16 17 16 16 16 16
19 19 19 19 19 19 19 19 19 19 19 20 18 19 21 22 22 22 21 20 20 20 20 19 18 18 18 18 19 18 18 19 18 18 18 17 17 16 17 17 16 16 16
20 20 20 19 20 19 19 19 19 18 18 20 20 20 19 19 20 21 22 22 20 20 20 20 20 18 18 18 19 19 19 19 19 18 17 17 17 17 17 17 17 16 16
20 20 20 20 20 19 19 19 19 18 19 19 20 20 20 19 20 20 21 21 21 21 21 20 20 20 18 18 18 18 19 19 19 18 17 17 17 17 17 17 16 16 15
21 20 20 20 20 20 19 19 19 19 19 19 19 19 19 20 20 20 21 21 21 20 20 20 20 19 19 20 19 19 19 19 19 18 18 18 17 17 17 16 16 16 15
20 20 20 20 20 20 19 19 19 19 18 18 19 18 19 19 19 19 19 20 20 21 21 21 20 19 19 20 19 19 19 19 19 19 18 18 18 17 17 17 16 16 16
21 20 19 20 20 20 19 19 19 19 18 18 18 18 17 18 18 19 19 20 20 21 22 21 21 20 19 19 19 19 19 19 19 19 18 18 18 17 17 17 17 16 16
20 20 19 19 20 19 19 19 19 18 18 18 17 17 17 18 18 19 19 19 19 20 22 22 20 20 19 19 18 18 18 18 19 19 19 19 18 18 18 17 17 16 16
19 19 19 19 19 18 18 19 18 18 18 17 17 18 17 18 17 17 18 18 18 18 19 20 21 20 18 18 19 18 18 18 19 19 19 18 18 18 18 17 17 16 16
21 21 20 20 20 19 18 18 18 17 17 16 16 16 17 18 18 18 17 17 17 18 18 19 19 19 17 17 17 17 17 18 18 19 18 18 18 18 18 18 17 17 17
21 21 21 20 20 19 17 18 17 17 17 17 16 16 16 16 16 17 17 16 17 17 17 17 17 17 17 17 18 17 17 18 17 16 17 17 17 17 17 17 17 17 17
19 19 19 18 17 16 16 16 16 16 16 16 16 16 16 16 16 16 16 16 17 16 16 16 16 16 16 16 17 16 17 17 17 17 17 17 16 17 17 17 17 16 16
19 19 18 18 17 17 17 16 16 16 16 16 16 16 16 16 16 16 16 16 16 16 16 15 16 16 15 15 16 16 16 15 14 15 15 15 15 16 16 16 17 16 16
19 18 17 17 16 16 16 16 16 15 16 15 15 15 15 16 16 16 16 15 16 15 15 16 16 15 15 14 14 16 15 15 15 15 15 15 15 15 16 16 16 16 16
17 17 17 16 16 16 16 16 16 15 15 15 15 15 15 15 16 16 15 15 15 15 14 14 14 14 14 13 13 13 13 13 13 13 14 14 13 14 15 16 16 15 15
17 16 16 16 16 15 15 15 15 14 14 14 15 15 14 14 14 14 14 13 14 14 14 13 13 13 12 11 11 12 12 11 11 11 11 11 12 13 14 15 14 15 15
16 16 16 16 15 15 14 15 14 12 12 13 13 12 11 12 12 11 11 12 12 12 12 11 11 11 11 11 11 11 11 11 10 10 10 11 10 10 12 12 12 13 14
14 14 14 14 14 14 14 14 12 12 11 11 11 12 12 12 12 12 11 11 11 11 12 12 11 11 11 11 11 10 10 10 10 10 10 10 10 10 10 11 11 11 12
14 12 12 13 13 13 13 13 12 13 12 12 11 10 11 11 11 11 10 10 10 10 10 11 12 11 11 11 11 11 10 10 10 10 10 10 10 9 10 10 10 10 10
Height
1583 1585 1587 1588 1588 1589 1589 1589 1590 1590 1589 1588 1588 1587 1586 1586 1586 1585 1585 1583 1581 1581 1580 1580 1579 1580 1581 1581 1582 1582 1583 1584 1586 1587 1588 1590 1593 1595 1598 1600 1602 1604 1605
1583 1586 1587 1588 1589 1589 1589 1589 1589 1589 1588 1587 1586 1585 1584 1583 1583 1583 1583 1582 1579 1578 1578 1579 1577 1578 1578 1579 1579 1579 1580 1582 1582 1584 1586 1588 1590 1593 1594 1597 1600 1602 1604
1583 1584 1587 1587 1589 1588 1587 1588 1588 1587 1586 1584 1583 1581 1580 1580 1580 1579 1579 1578 1577 1575 1575 1576 1575 1576 1576 1575 1576 1577 1577 1578 1580 1581 1582 1584 1587 1590 1593 1594 1597 1599 1602
1583 1584 1586 1586 1586 1586 1587 1586 1585 1583 1582 1580 1579 1578 1577 1576 1575 1575 1575 1574 1573 1574 1572 1571 1572 1572 1573 1573 1573 1569 1572 1576 1580 1582 1582 1582 1583 1586 1589 1592 1594 1597 1600
1582 1582 1583 1585 1583 1584 1582 1581 1580 1579 1579 1578 1576 1574 1573 1572 1571 1571 1571 1570 1569 1569 1570 1568 1568 1568 1568 1569 1569 1569 1570 1572 1574 1577 1579 1579 1580 1582 1585 1587 1589 1593 1596
1580 1580 1581 1581 1581 1582 1580 1579 1577 1577 1575 1574 1573 1571 1569 1568 1567 1567 1567 1566 1566 1565 1566 1566 1565 1563 1564 1564 1565 1567 1568 1569 1567 1569 1573 1575 1576 1578 1581 1583 1586 1589 1593
1578 1577 1579 1580 1579 1578 1577 1576 1575 1573 1573 1573 1570 1569 1567 1565 1565 1564 1563 1562 1562 1561 1561 1561 1560 1561 1559 1559 1561 1563 1564 1565 1567 1569 1569 1571 1575 1575 1577 1580 1582 1585 1588
1575 1576 1576 1576 1577 1577 1576 1574 1573 1572 1572 1571 1570 1568 1565 1564 1562 1562 1562 1560 1559 1558 1557 1555 1555 1554 1555 1557 1559 1557 1559 1560 1563 1559 1559 1563 1569 1574 1575 1576 1577 1580 1583
1574 1574 1574 1574 1574 1574 1575 1572 1571 1570 1571 1570 1568 1569 1565 1562 1561 1560 1559 1559 1558 1557 1556 1553 1550 1550 1551 1555 1554 1555 1555 1555 1558 1559 1559 1562 1567 1570 1571 1572 1573 1576 1578
1573 1573 1573 1573 1572 1572 1571 1571 1570 1569 1569 1569 1568 1567 1565 1564 1562 1559 1557 1556 1555 1554 1554 1552 1550 1549 1550 1552 1552 1553 1553 1553 1554 1556 1556 1560 1563 1566 1567 1568 1570 1573 1575
1571 1571 1571 1570 1570 1569 1570 1569 1568 1567 1567 1567 1567 1565 1564 1561 1560 1559 1556 1554 1553 1552 1551 1550 1549 1548 1548 1550 1551 1550 1551 1551 1551 1551 1554 1557 1560 1561 1563 1564 1566 1569 1572
1571 1570 1568 1568 1568 1567 1568 1567 1565 1565 1563 1563 1563 1563 1561 1560 1559 1557 1554 1553 1551 1550 1550 1549 1548 1547 1545 1545 1547 1548 1548 1548 1549 1549 1551 1552 1555 1556 1558 1560 1563 1565 1567
1570 1569 1567 1567 1566 1565 1565 1564 1562 1561 1561 1560 1558 1558 1559 1557 1556 1555 1553 1552 1550 1548 1548 1548 1547 1546 1544 1543 1544 1545 1545 1546 1546 1547 1548 1549 1551 1552 1554 1556 1558 1559 1560
1568 1567 1566 1565 1564 1562 1562 1560 1558 1557 1557 1556 1555 1554 1554 1554 1554 1553 1552 1551 1548 1546 1544 1546 1546 1545 1544 1540 1541 1542 1542 1545 1544 1544 1545 1546 1547 1548 1550 1552 1554 1555 1555
1565 1564 1563 1562 1560 1558 1556 1556 1556 1555 1553 1553 1552 1550 1548 1550 1550 1550 1549 1549 1548 1546 1543 1544 1544 1544 1543 1542 1540 1540 1541 1541 1542 1542 1543 1544 1544 1545 1546 1548 1549 1550 1551
1560 1558 1557 1555 1554 1553 1552 1551 1551 1552 1548 1548 1547 1543 1542 1543 1544 1546 1546 1546 1545 1544 1542 1542 1542 1541 1539 1538 1539 1537 1539 1538 1539 1540 1541 1542 1542 1543 1544 1544 1545 1546 1547
1554 1553 1552 1551 1549 1548 1547 1546 1545 1545 1544 1543 1541 1539 1539 1539 1539 1540 1540 1540 1540 1540 1539 1539 1539 1538 1535 1535 1536 1534 1534 1537 1536 1536 1537 1538 1539 1540 1541 1541 1541 1542 1543
1551 1549 1547 1546 1544 1543 1542 1542 1541 1541 1540 1539 1538 1537 1537 1538 1537 1537 1536 1536 1537 1537 1536 1534 1533 1533 1533 1531 1531 1531 1532 1534 1530 1521 1531 1534 1536 1537 1536 1538 1537 1538 1538
1548 1547 1545 1544 1543 1542 1541 1541 1540 1539 1539 1538 1537 1537 1536 1536 1535 1535 1534 1534 1533 1532 1531 1530 1529 1528 1528 1527 1527 1528 1529 1528 1529 1526 1529 1530 1532 1532 1533 1533 1533 1533 1534
1547 1545 1544 1542 1541 1540 1539 1539 1538 1538 1537 1536 1535 1535 1534 1532 1531 1530 1529 1528 1527 1527 1527 1525 1525 1525 1523 1523 1522 1522 1527 1526 1525 1524 1527 1528 1528 1528 1528 1528 1527 1527 1528
1546 1545 1543 1542 1541 1541 1540 1539 1538 1537 1536 1536 1535 1533 1531 1529 1528 1526 1525 1523 1522 1522 1522 1521 1521 1520 1520 1519 1516 1515 1519 1521 1521 1520 1520 1523 1525 1525 1526 1524 1522 1521 1521
1548 1547 1546 1545 1544 1542 1541 1540 1538 1537 1536 1534 1532 1531 1529 1526 1524 1523 1521 1520 1519 1517 1517 1516 1516 1512 1511 1514 1509 1517 1514 1517 1516 1518 1518 1519 1519 1521 1521 1522 1518 1517 1516
1551 1549 1548 1548 1546 1545 1544 1542 1541 1540 1539 1537 1535 1533 1531 1528 1525 1522 1520 1517 1516 1515 1513 1512 1513 1513 1512 1513 1513 1511 1511 1512 1513 1513 1514 1515 1513 1514 1517 1517 1513 1511 1510
1554 1553 1552 1551 1550 1548 1547 1546 1544 1543 1542 1540 1538 1536 1534 1531 1527 1526 1523 1521 1518 1516 1515 1514 1514 1514 1514 1513 1512 1511 1510 1510 1510 1510 1510 1508 1509 1508 1508 1507 1508 1506 1505
1557 1557 1556 1555 1554 1552 1551 1550 1549 1548 1545 1542 1540 1538 1537 1534 1531 1527 1526 1523 1521 1520 1518 1517 1515 1515 1514 1513 1512 1511 1512 1510 1509 1508 1509 1506 1505 1503 1502 1501 1501 1501 1501
1559 1559 1558 1558 1557 1556 1554 1552 1550 1552 1550 1549 1545 1542 1539 1536 1534 1532 1529 1528 1527 1524 1522 1520 1518 1516 1515 1514 1514 1513 1513 1512 1510 1508 1506 1506 1503 1500 1498 1494 1495 1492 1495
Wind_Speed
9 7 5 4 4 1 2 2 3 5 6 8 10 11 11 10 9 9 8 13 10 9 9 8 7 8 8 8 7 7 9 12 15 18 19 20 20 20 19 18 19 18 17
9 5 3 3 0 2 3 5 6 8 10 11 13 12 12 12 11 12 11 12 15 12 11 12 13 9 9 8 11 10 10 11 14 16 20 20 20 20 21 20 20 20 19
5 4 1 1 2 3 4 5 7 9 11 11 12 13 13 13 12 13 12 11 12 15 15 16 17 14 13 10 12 13 12 12 14 15 18 21 21 21 22 21 21 21 21
2 2 4 2 6 3 6 7 10 12 11 12 14 14 13 14 14 13 12 12 13 12 15 14 15 17 16 16 16 13 16 14 13 13 16 19 21 23 24 23 22 23 23
7 7 5 5 7 6 9 8 9 10 12 12 13 12 12 12 13 12 13 14 14 13 12 14 17 15 17 15 15 15 16 16 15 14 15 17 19 22 24 25 25 25 24
9 9 8 10 10 8 8 8 10 10 11 12 11 13 13 12 12 12 12 12 12 13 13 15 17 16 17 17 18 14 17 16 17 21 17 17 18 19 22 24 24 25 27
9 9 9 9 9 9 9 8 8 10 11 10 12 12 10 10 8 9 10 9 9 10 11 13 15 14 18 17 17 16 17 18 15 19 21 20 19 20 20 22 23 23 25
10 11 11 10 11 8 9 10 10 8 10 9 9 11 6 9 5 7 8 7 6 7 9 10 11 16 12 11 13 12 15 16 18 19 22 22 22 23 20 19 23 23 26
9 10 10 10 11 10 10 10 10 8 7 9 10 7 11 9 14 9 6 8 8 10 11 11 11 12 11 9 10 9 13 14 13 19 22 26 24 24 22 19 22 25 27
6 7 8 9 10 10 11 10 9 8 10 9 8 9 10 11 13 11 9 10 12 11 10 9 10 10 11 9 8 7 9 10 11 18 16 25 23 23 23 22 21 25 27
6 8 10 10 11 11 12 13 12 13 10 10 9 10 10 10 10 11 14 10 10 7 7 7 8 8 10 10 9 9 8 9 11 12 14 22 23 21 21 22 24 23 26
6 9 9 10 11 12 13 12 14 15 15 13 12 9 11 11 11 11 12 11 10 9 5 4 3 6 9 11 9 12 9 9 9 10 13 15 17 19 20 21 21 25 25
9 9 11 12 12 13 15 16 14 15 15 17 15 10 11 11 10 9 10 10 11 9 7 6 4 5 7 12 13 11 12 10 9 11 11 12 13 15 16 17 20 22 26
10 11 11 13 14 15 15 15 15 13 13 13 13 15 11 10 9 9 9 10 12 11 8 6 6 6 8 9 14 12 14 15 12 13 13 13 13 14 15 16 16 18 24
12 14 15 17 16 16 18 16 11 11 13 12 13 12 14 11 11 9 10 10 11 13 10 8 7 8 8 8 11 16 17 17 15 13 13 12 12 12 13 14 17 17 17
15 17 18 17 18 16 16 20 11 11 17 13 13 20 18 15 11 9 10 11 11 13 15 11 12 11 10 8 10 13 15 18 15 14 14 13 12 10 11 13 14 17 17
16 17 18 20 21 20 18 17 17 16 16 12 10 12 10 11 12 13 14 15 11 12 15 14 12 12 13 9 6 9 11 11 15 16 16 16 16 15 14 13 14 15 16
16 17 18 17 17 16 15 16 16 15 13 11 10 10 9 8 10 13 14 10 13 14 14 17 14 11 11 10 10 10 6 10 15 17 13 17 17 17 17 17 16 16 17
8 10 11 10 8 8 7 7 7 7 9 11 8 9 9 10 11 10 12 13 14 14 13 13 14 14 11 10 7 7 12 13 14 20 20 18 18 20 19 20 19 19 21
7 7 7 7 7 7 7 7 9 7 8 8 9 11 12 14 16 16 17 16 15 15 15 15 15 12 15 13 13 12 9 3 5 4 8 12 16 18 20 21 21 20 21
5 6 8 9 10 9 8 5 6 7 7 9 11 12 12 13 15 16 16 15 16 17 13 14 14 13 10 6 10 11 9 8 11 15 9 4 10 12 13 16 16 16 20
13 13 15 15 15 17 16 14 11 9 9 10 10 9 10 11 13 15 16 16 16 16 15 16 16 12 15 15 10 9 7 14 20 24 27 19 5 12 12 14 19 20 19
17 18 18 18 19 19 19 17 17 16 16 16 15 15 15 17 18 19 16 11 8 7 7 6 7 9 11 7 9 11 12 11 11 12 14 18 20 9 9 12 18 20 22
17 17 17 18 18 19 18 16 18 15 14 16 16 17 17 16 16 14 14 16 15 16 16 13 10 6 4 9 9 10 11 11 15 19 17 18 15 25 18 9 10 16 14
15 16 16 15 15 15 14 14 14 12 14 15 16 18 16 17 17 14 11 13 13 12 10 7 7 7 7 6 4 5 7 8 9 12 12 18 22 22 24 25 20 12 13
13 12 11 11 11 11 11 11 12 10 12 11 11 12 15 15 15 15 13 12 12 12 12 15 12 10 9 10 8 8 6 7 8 9 8 13 14 12 13 11 9 18 28
Wind_Direction
103 108 125 125 134 192 242 237 248 264 281 296 294 292 295 304 285 280 278 287 286 295 286 284 302 280 272 270 264 246 227 216 213 214 212 213 211 206 205 205 204 203 199
102 99 121 119 100 266 267 265 266 271 281 286 289 291 284 289 288 282 281 277 288 278 283 277 269 282 267 264 262 250 236 224 219 216 217 214 213 211 208 209 207 208 206
103 134 292 58 312 286 297 299 295 291 297 291 290 292 290 285 283 278 276 272 274 286 283 274 268 266 258 269 263 257 245 236 225 218 217 217 217 218 218 215 213 212 210
275 281 275 278 268 303 292 291 284 288 288 289 293 290 285 279 277 272 272 267 276 277 277 274 268 267 265 263 259 251 241 239 235 230 224 221 220 220 220 220 217 217 214
258 257 258 256 271 263 274 280 280 283 282 285 285 288 283 277 277 278 272 267 269 268 264 269 279 263 260 261 261 255 248 237 231 234 230 227 227 225 226 224 221 218 218
252 254 258 257 267 267 281 284 290 295 299 293 295 295 277 273 272 271 270 271 271 272 270 263 266 272 259 267 261 258 247 240 234 223 225 229 225 226 228 227 223 223 217
249 252 247 262 274 270 290 291 303 305 308 303 298 300 292 283 279 269 271 269 265 272 276 267 253 246 257 265 256 259 249 244 232 222 242 231 232 229 227 226 221 220 215
249 252 256 252 264 282 300 303 303 302 304 314 308 317 328 303 288 319 289 285 283 281 280 281 255 246 237 252 265 254 243 250 244 257 220 224 225 230 226 227 218 217 211
271 278 279 284 279 284 285 297 300 311 300 312 298 294 312 309 313 309 296 290 282 294 284 283 272 245 235 238 251 263 251 249 240 217 210 222 224 228 226 226 219 216 211
269 274 282 285 287 278 274 287 292 283 293 302 300 293 286 290 299 304 296 296 303 306 289 273 282 244 226 232 256 249 252 242 238 218 230 215 222 226 228 227 222 216 217
285 283 287 287 285 281 277 288 285 283 268 277 297 295 292 295 289 289 298 303 304 294 303 291 270 232 235 226 245 255 239 247 237 227 221 219 226 229 232 233 228 228 228
296 295 282 287 286 287 285 290 286 287 286 276 272 284 298 296 295 290 290 293 306 310 311 325 298 245 248 240 225 251 253 246 229 221 220 218 224 232 235 238 238 235 238
290 293 298 298 294 295 296 295 294 303 295 288 282 280 289 288 286 288 288 288 293 296 295 300 291 282 270 256 245 237 243 250 244 231 228 227 233 236 238 237 239 240 238
286 284 294 294 297 300 301 299 302 310 310 291 290 286 283 287 281 281 285 290 294 292 283 292 306 310 313 291 233 229 242 253 261 243 234 232 239 248 248 242 241 241 243
288 295 291 291 296 295 296 291 296 294 297 298 290 288 282 273 273 277 278 280 284 291 287 294 305 302 320 296 263 234 244 252 248 247 240 241 250 248 260 259 249 242 242
287 286 288 289 289 286 283 285 289 295 294 304 289 295 286 273 267 269 269 269 271 275 281 281 288 292 295 303 285 265 243 245 243 249 246 250 243 245 261 267 256 245 247
291 286 280 281 283 286 285 288 286 289 292 290 291 301 280 267 272 264 259 270 269 271 274 282 283 298 304 311 291 283 242 244 252 255 251 250 246 251 266 277 270 253 244
286 285 290 294 296 297 302 304 304 299 291 293 295 290 271 274 280 288 286 284 265 261 264 269 281 287 281 282 304 306 272 252 265 223 238 250 254 255 270 274 271 255 247
312 311 315 326 340 349 352 345 339 337 325 318 312 278 282 287 286 282 276 271 274 277 274 269 270 281 287 277 283 293 280 263 257 276 281 261 259 263 267 273 274 261 249
342 349 352 348 348 340 341 339 336 323 307 301 309 307 304 297 294 291 286 279 278 274 271 271 272 267 261 267 265 271 259 237 321 243 293 291 277 276 276 276 274 264 257
11 12 14 24 25 24 24 14 329 327 317 306 312 310 312 303 299 293 294 294 280 270 265 268 270 261 250 223 210 235 240 249 270 273 267 280 295 283 282 290 295 271 257
70 71 70 64 63 57 52 49 43 34 29 31 23 10 351 337 312 302 294 291 288 289 290 276 260 227 225 229 234 230 236 270 272 270 270 251 309 300 286 275 273 264 265
76 71 67 64 60 58 54 51 52 55 53 48 42 39 36 37 39 34 26 12 354 340 323 306 309 302 277 261 283 301 303 301 295 280 280 282 263 258 293 284 284 278 267
72 68 65 61 57 53 49 46 50 48 45 45 43 35 33 31 31 36 34 41 50 52 46 49 44 17 337 320 317 311 312 307 300 297 298 291 301 263 243 237 305 293 303
75 69 65 62 58 56 51 48 61 54 50 49 41 39 35 34 29 35 31 23 24 19 15 4 3 13 16 14 2 341 320 326 323 316 297 294 297 304 294 273 248 273 284
82 73 69 66 61 59 53 52 70 44 43 39 31 31 27 29 31 33 39 30 26 26 21 29 27 32 42 42 30 2 335 315 301 317 314 305 313 326 309 307 314 273 258